sat.trackr.live / text

‹ back to catalog

STARLINK-32472

NORAD 61846 · 2024-202B

PAYLOAD ACTIVE UNKNOWN

§ Identity

Operator
Country
US
Launch date
2024-11-07
Launch site
AFETR
Launch vehicle
Mass (kg)
RCS (m²)

Purposes: comms

External: N2YO · Heavens-Above · Gunter

§ Orbital elements

Epoch: 2026-05-25T00:14:56.323104Z

Period
94.27 min
Inclination
43.0012°
Eccentricity
0.0001455
Mean motion
15.27575119 rev/d
Perigee alt
482.1 km
Apogee alt
484.1 km
Semi-major
6,861.2 km
B*
7.8592e-6
RAAN
156.2690°
Arg perigee
275.3055°
Mean anomaly
84.7631°
Rev number
8,712

§ Raw data

STARLINK-324721 61846U 24202B   26145.01037411 -.00000046  00000+0  78592-5 0  99962 61846  43.0012 156.2690 0001455 275.3055  84.7631 15.27575119 87128

JSON: /api/v1/satellites/61846 · /tle

For live sub-satellite position, see the globe view (requires WebGL).

§ Visibility from observer

Set your observer location to see the next 7 days of passes ≥ 10°. The values pass through the URL so the page stays shareable.

No JS? Fill the form by hand. The geolocation button needs JavaScript.